Brookings, OR

12:47 AM PST on February 21, 2017 (GMT -0800)
Brookings State

Weather History for KBOK - July, 2013

Change the Weather History Date:

Friday, July 19, 2013

  Actual Average Record
Temperature  
Mean Temperature 55 °F -  
Max Temperature 60 °F 68 °F 86 °F (1980)
Min Temperature 50 °F 51 °F 45 °F (1962)
Degree Days  
Heating Degree Days 10    
Growing Degree Days 5 (Base 50)    
Moisture  
Dew Point 52 °F    
Average Humidity 93    
Maximum Humidity 100    
Minimum Humidity 77    
Precipitation  
Precipitation 0.00 in - - ()
Sea Level Pressure  
Sea Level Pressure 30.03 in    
Wind  
Wind Speed 3 mph (South)    
Max Wind Speed 8 mph    
Max Gust Speed -    
Visibility 5 miles    
Events Fog    
Averages and records for this station are not official NWS values.
T = Trace of Precipitation, MM = Missing Value Source: NWS Daily Summary

Daily Weather History Graph

Daily Weather History Graph

Search for Another Location

Airport or City:

Trip Planner

Search our weather history database for the weather conditions in past years. The results will help you decide how hot, cold, wet, or windy it might be!

Date:

Astronomy

Jul. 19, 2013 Rise Set
Actual Time 5:58 AM PDT 8:48 PM PDT
Civil Twilight 5:25 AM PDT 9:20 PM PDT
Nautical Twilight 4:43 AM PDT 10:02 PM PDT
Astronomical Twilight 3:55 AM PDT 10:50 PM PDT
Moon 5:56 PM PDT (7/19) 2:45 AM PDT (7/19)
Length of Visible Light 15h 55m
Length of Day
14h 49m
Waxing Gibbous, 87% of the Moon is Illuminated
Jul 19
Waxing Gibbous
Jul 22
Full
Jul 29
Last Quarter
Aug 6
New
Aug 14
First Quarter

Hourly Weather History & Observations

Time (PDT) Temp. Dew Point Humidity Pressure Visibility Wind Dir Wind Speed Gust Speed Precip Events Conditions
12:56 AM 52.0 °F 50.0 °F 93% 30.07 in 7.0 mi East 3.5 mph - N/A   Clear
1:23 AM 51.8 °F 50.0 °F 94% 30.07 in 7.0 mi East 3.5 mph - N/A   Scattered Clouds
1:34 AM 51.8 °F 51.8 °F 100% 30.07 in 7.0 mi ESE 4.6 mph - N/A   Mostly Cloudy
1:46 AM 53.6 °F 51.8 °F 94% 30.06 in 6.0 mi Calm Calm - N/A   Overcast
1:56 AM 52.9 °F 50.9 °F 93% 30.07 in 6.0 mi ESE 3.5 mph - N/A   Overcast
2:56 AM 52.9 °F 52.0 °F 97% 30.06 in 5.0 mi Calm Calm - N/A   Overcast
3:20 AM 53.6 °F 51.8 °F 94% 30.05 in 4.0 mi Calm Calm - N/A   Overcast
3:56 AM 52.0 °F 52.0 °F 100% 30.05 in 4.0 mi North 3.5 mph - N/A   Overcast
4:56 AM 52.0 °F 50.9 °F 96% 30.05 in 3.0 mi Calm Calm - N/A   Overcast
5:23 AM 51.8 °F 51.8 °F 100% 30.04 in 2.0 mi Calm Calm - N/A   Overcast
5:39 AM 51.8 °F 51.8 °F 100% 30.04 in 1.8 mi Calm Calm - N/A   Overcast
5:56 AM 52.0 °F 50.9 °F 96% 30.04 in 1.0 mi Calm Calm - N/A   Overcast
6:01 AM 51.8 °F 51.8 °F 100% 30.04 in 0.5 mi Calm Calm - N/A Fog Fog
6:17 AM 51.8 °F 51.8 °F 100% 30.04 in 0.2 mi North 3.5 mph - N/A Fog Fog
6:56 AM 50.9 °F 50.9 °F 100% 30.04 in 0.2 mi Calm Calm - N/A Fog Fog
7:03 AM 51.8 °F 51.8 °F 100% 30.04 in 0.2 mi Calm Calm - N/A Fog Fog
7:21 AM 51.8 °F 51.8 °F 100% 30.04 in 0.2 mi Calm Calm - N/A Fog Fog
7:29 AM 51.8 °F 51.8 °F 100% 30.04 in 0.2 mi NNW 3.5 mph - N/A Fog Fog
7:56 AM 52.0 °F 52.0 °F 100% 30.04 in 0.2 mi Calm Calm - N/A Fog Fog
8:15 AM 51.8 °F 51.8 °F 100% 30.04 in 0.8 mi West 3.5 mph - N/A   Overcast
8:22 AM 51.8 °F 51.8 °F 100% 30.04 in 1.2 mi Calm Calm - N/A   Overcast
8:30 AM 51.8 °F 51.8 °F 100% 30.04 in 2.0 mi Variable 3.5 mph - N/A   Overcast
8:39 AM 53.6 °F 51.8 °F 94% 30.04 in 5.0 mi Calm Calm - N/A   Overcast
8:56 AM 52.9 °F 52.0 °F 97% 30.04 in 7.0 mi Calm Calm - N/A   Overcast
9:56 AM 55.9 °F 52.9 °F 89% 30.03 in 7.0 mi SSW 3.5 mph - N/A   Overcast
10:29 AM 55.4 °F 53.6 °F 94% 30.03 in 1.8 mi WSW 4.6 mph - N/A   Overcast
10:36 AM 55.4 °F 53.6 °F 94% 30.03 in 1.5 mi WSW 4.6 mph - N/A   Overcast
10:56 AM 55.9 °F 52.9 °F 89% 30.03 in 2.0 mi Variable 3.5 mph - N/A   Overcast
11:34 AM 55.4 °F 53.6 °F 94% 30.02 in 4.0 mi WSW 3.5 mph - N/A   Overcast
11:56 AM 55.9 °F 52.9 °F 89% 30.03 in 6.0 mi SW 3.5 mph - N/A   Overcast
12:56 PM 55.9 °F 52.9 °F 89% 30.03 in 7.0 mi SSE 6.9 mph - N/A   Mostly Cloudy
1:17 PM 55.4 °F 53.6 °F 94% 30.02 in 4.0 mi Variable 5.8 mph - N/A   Mostly Cloudy
1:56 PM 57.9 °F 52.9 °F 83% 30.01 in 8.0 mi SSW 5.8 mph - N/A   Mostly Cloudy
2:04 PM 57.2 °F 53.6 °F 88% 30.01 in 7.0 mi SSW 5.8 mph - N/A   Partly Cloudy
2:56 PM 59.0 °F 52.9 °F 80% 30.01 in 8.0 mi Variable 5.8 mph - N/A   Partly Cloudy
3:15 PM 59.0 °F 53.6 °F 82% 30.00 in 9.0 mi Variable 6.9 mph - N/A   Mostly Cloudy
3:56 PM 59.0 °F 52.9 °F 80% 29.99 in 9.0 mi Variable 5.8 mph - N/A   Mostly Cloudy
4:12 PM 60.8 °F 53.6 °F 77% 29.98 in 9.0 mi SE 8.1 mph - N/A   Scattered Clouds
4:56 PM 59.9 °F 52.9 °F 78% 29.99 in 9.0 mi Variable 6.9 mph - N/A   Clear
5:56 PM 59.0 °F 52.9 °F 80% 29.98 in 9.0 mi SE 6.9 mph - N/A   Clear
6:56 PM 59.0 °F 52.9 °F 80% 29.98 in 8.0 mi SSE 6.9 mph - N/A   Clear
7:56 PM 57.9 °F 52.9 °F 83% 29.98 in 7.0 mi Variable 4.6 mph - N/A   Clear
8:56 PM 54.9 °F 52.9 °F 93% 29.99 in 7.0 mi SE 3.5 mph - N/A   Clear
9:15 PM 55.4 °F 51.8 °F 88% 29.99 in 7.0 mi Variable 3.5 mph - N/A   Partly Cloudy
9:39 PM 53.6 °F 53.6 °F 100% 30.00 in 6.0 mi SE 5.8 mph - N/A   Mostly Cloudy
9:56 PM 54.9 °F 52.9 °F 93% 30.01 in 6.0 mi Calm Calm - N/A   Overcast
10:26 PM 53.6 °F 51.8 °F 94% 30.01 in 5.0 mi Variable 3.5 mph - N/A   Overcast
10:56 PM 54.0 °F 52.0 °F 93% 30.02 in 5.0 mi Variable 3.5 mph - N/A   Overcast
11:56 PM 52.9 °F 52.0 °F 97% 30.01 in 3.0 mi SSE 3.5 mph - N/A   Overcast